DECAYED

THORAD AGENA D DEB, 4765 (Decayed)

Orbit data source: Space-Track

THORAD AGENA D DEB, 4765 was space debris in SSO originally from a launch on Wed, 08 Apr 1970 UTC launched from the Air Force Western Test Range (AFWTR). Debris objects in space refer to the collection of defunct objects orbiting the Earth. Examples of debris include non-operational satellites, rocket bodies, and fragments generated from explosions, collisions, or faulty payload assembly.

Not visible in the next 10 days
Identifier
4765, 1970-025DK
Orbit
Decayed
Country
Flag of USUS
Related business
Manufacturer
Unknown
Mission
Decayed spacecraft
Bus & Motor
Unknown
Mass
Unknown
Launch date (UTC)
1970-04-08 (56 years ago)
Launch vehicle
Unknown
Launch site
Air Force Western Test Range (AFWTR)
Object type
Payload
Rocket body
Debris
Shape & HBR
Unknown shape, 0.2 m
Radar Cross Section
Medium (>0.1 m² and <1 m²)

Expand to show TLE details & history
Last TLE update: 9 months ago

TLE from 9 months ago
0 THORAD AGENA D DEB
1 04765U 70025DK  25343.18493534  .05550941  87254-1  91710-2 0  9996
2 04765  99.5380  66.2205 0015213 313.3504  46.6503 16.09072304881283
Epoch: 2025-12-09T04:26Z
TLE epoch observation values (Epoch: 2025-12-09T04:26:18.413Z)
Latitude
-0.00005°
Longitude
-78.52946°
Altitude
245.613 km
Speed
7.764 km/s
True Right ascension
04h 24m 52s
True Declination
0° 00' 00"
Sunlit
Object was in full shadow at epoch
Visualization orbit readout
Latitude
Unknown
Longitude
Unknown
Altitude
Unknown
Speed
Unknown
Apparent Right ascension
Unknown
Apparent Declination
Unknown
Sunlit
N/A
Visualization observer readout
Local Sidereal Time
20:25:16
Azimuth
Unknown
Elevation
Unknown
Doppler factor
Unknown
Orbital elements
Apogee altitude
256.423 km
Perigee altitude
236.268 km
Semi-major axis
6,624.483 km
Eccentricity
0.00152
Inclination
99.538°
RAAN
66.2205°
Arg. of periapsis
313.3504°
True anomaly
46.77723°
Mean anomaly
46.6503°
Eccentric anomaly
46.71375°
Mean motion
4.02546 °/min
Orbital period
89.43 mins
BSTAR
0.009171
Loading maneuver chart data...
Computing Atmospheric mass density...

Documentation

Showing up to 5 results
|